Location: Veytaux
(46.4185°N, 6.9320°E)
Time: 07:59:47
(UTC+00:00)

SL-14 R/B - Pass Details

Date: 27 May 2022
Orbit: 517 x 551 km, 82.4° (Epoch: 01 July)

Event Time Altitude Azimuth Distance (km) Brightness Sun altitude
Exits shadow 00:54:21 32° 267° (W) 930 4.2 -19.6°
Maximum altitude 00:54:54 33° 285° (WNW) 898 4.3 -19.6°
Drops below altitude 10° 00:58:27 10° 351° (N) 1,769 6.8 -19.4°
Sets 01:00:45 0° 1° (N) 2,659 8.1 -19.2°
